This is the latest recevied weather packets stored in our database for station/object WB0RXX. If no packets are shown the sender has not sent any weather packets the latest 1 day(s).
| Time | Temp. | Humidity | Pressure | Rain* | Wind** | Luminosity | Snow |
|---|---|---|---|---|---|---|---|
| 1778015404 | 10° C | 41% | 1012.6 hPa | 0 mm | 2.24 m/s, 323° | - | - |
| 1778014803 | 10° C | 39% | 1012.6 hPa | 0 mm | 2.24 m/s, 326° | - | - |
| 1778014203 | 10° C | 40% | 1012.6 hPa | 0 mm | 1.79 m/s, 298° | - | - |
| 1778013603 | 10° C | 41% | 1012.7 hPa | 0 mm | 1.79 m/s, 334° | - | - |
| 1778013004 | 10° C | 41% | 1012.8 hPa | 0 mm | 1.79 m/s, 312° | - | - |
| 1778012404 | 10° C | 40% | 1012.8 hPa | 0 mm | 2.24 m/s, 336° | - | - |
| 1778011803 | 10° C | 40% | 1012.7 hPa | 0 mm | 2.24 m/s, 285° | - | - |
| 1778011203 | 9.44° C | 42% | 1012.7 hPa | 0 mm | 1.79 m/s, 288° | - | - |
| 1778010603 | 9.44° C | 41% | 1012.7 hPa | 0 mm | 1.79 m/s, 300° | - | - |
| 1778010004 | 9.44° C | 40% | 1012.6 hPa | 0 mm | 2.24 m/s, 345° | - | - |
| 1778009404 | 10° C | 42% | 1012.7 hPa | 0 mm | 1.34 m/s, 314° | - | - |
| 1778008804 | 10° C | 41% | 1012.6 hPa | 0 mm | 0.89 m/s, 325° | - | - |
| 1778008204 | 9.44° C | 42% | 1012.7 hPa | 0 mm | 0.89 m/s, 355° | - | - |
| 1778007604 | 9.44° C | 42% | 1012.7 hPa | 0 mm | 1.34 m/s, 330° | - | - |
| 1778007004 | 9.44° C | 41% | 1012.8 hPa | 0 mm | 3.13 m/s, 310° | - | - |
| 1778006404 | 9.44° C | 42% | 1012.9 hPa | 0 mm | 1.79 m/s, 333° | - | - |
| 1778005803 | 9.44° C | 43% | 1012.7 hPa | 0 mm | 1.79 m/s, 305° | - | - |
| 1778005219 | 9.44° C | 42% | 1012.7 hPa | 0 mm | 1.79 m/s, 277° | - | - |
| 1778004604 | 9.44° C | 43% | 1012.8 hPa | 0 mm | 1.34 m/s, 347° | - | - |
| 1778004003 | 9.44° C | 41% | 1012.6 hPa | 0 mm | 2.68 m/s, 321° | - | - |
| 1778003403 | 9.44° C | 40% | 1012.4 hPa | 0 mm | 1.34 m/s, 302° | - | - |
| 1778002803 | 9.44° C | 40% | 1012.5 hPa | 0 mm | 1.79 m/s, 333° | - | - |
| 1778002219 | 9.44° C | 42% | 1012.6 hPa | 0 mm | 0.45 m/s, 320° | - | - |
| 1778001604 | 10° C | 40% | 1012.5 hPa | 0 mm | 2.68 m/s, 345° | - | - |
| 1778001004 | 8.89° C | 42% | 1012.6 hPa | 0 mm | 1.79 m/s, 270° | - | - |
* Rain latest hour (hover to see other rain measurements)
** Current wind speed in m/s (hover to see current wind gust speed)